{"data":{"norad_id":58388,"intl_designator":"2023-178Q","name":"STARLINK-30913","alt_names":[],"object_type":"PAYLOAD","status":"ACTIVE","operator":null,"country":"US","launch_date":"2023-11-20","launch_site_code":"AFWTR","launch_vehicle":null,"mission":null,"orbit_class":"UNKNOWN","rcs_meters":null,"size_class":null,"mass_kg":null,"dimensions":null,"purposes":["comms"],"wikipedia_slug":null,"has_3d_model":false,"image_url":null,"decayed_at":null,"tle_current":{"epoch":"2026-09-20T11:31:23.816064Z","epoch_age_seconds":145366,"freshness":"FRESH","line1":"1 58388U 23178Q   26263.48013676 -.00000470  00000+0 -27671-5 0  9997","line2":"2 58388  53.1585 172.1165 0001242  86.4585 273.6559 15.34383016159779","mean_motion":15.34383016,"eccentricity":0.0001242,"inclination_deg":53.1585,"raan_deg":172.1165,"arg_perigee_deg":86.4585,"mean_anomaly_deg":273.6559,"bstar":-2.7671e-6,"rev_number":15977,"period_min":93.848796876933,"perigee_km":461.90408207244,"apogee_km":463.60335932746,"semimajor_km":6840.8907207,"source":"CELESTRAK","updated_at":"2026-09-21T09:00:33.867724Z"}}}